EW8130 Weather Reports


Display with metric or nautical units.
time (UTC)temp
F
wind
direction
speed
MPH
gust
MPH
rain 1hr
in
rain 24hr
in
rain mn
in
humidity
%
barometer
mb
20260903161552 82 95 4.0 10.0 0.00 0.00 0.00 79 992.9
20260903160054 82 41 4.0 13.0 0.00 0.00 0.00 80 992.8
20260903154551 81 97 0.0 11.0 0.00 0.00 0.00 82 992.8
20260903153048 81 106 8.0 14.0 0.00 0.00 0.00 83 992.8
20260903151547 80 110 5.0 11.0 0.00 0.00 0.00 85 992.8
20260903150045 80 359 6.0 12.0 0.00 0.00 0.00 87 992.7
20260903144545 80 108 0.0 4.0 0.00 0.00 0.00 87 992.8
20260903143046 79 359 0.0 10.0 0.00 0.00 0.00 88 992.8
20260903141539 79 52 2.0 9.0 0.00 0.00 0.00 88 992.7
20260903140043 78 359 2.0 8.0 0.00 0.00 0.00 89 992.9
20260903134537 78 71 0.0 9.0 0.00 0.00 0.00 90 992.9
20260903133035 78 66 1.0 8.0 0.00 0.00 0.00 90 992.9
20260903131535 77 59 0.0 6.0 0.00 0.00 0.00 90 992.7
20260903130033 77 77 0.0 8.0 0.00 0.00 0.00 90 992.2
20260903124534 77 40 0.0 4.0 0.00 0.00 0.00 90 992.4
20260903123031 77 38 0.0 10.0 0.00 0.00 0.00 90 992.3
20260903121535 77 34 1.0 9.0 0.00 0.00 0.00 90 992.3
20260903120039 77 359 4.0 9.0 0.00 0.00 0.00 90 992.2
20260903114526 77 67 0.0 6.0 0.00 0.00 0.00 91 992.0
20260903113037 77 95 0.0 2.0 0.00 0.00 0.00 90 992.0
20260903111523 76 359 0.0 3.0 0.00 0.00 0.00 90 991.9
20260903110022 76 39 0.0 2.0 0.00 0.00 0.00 91 992.0
20260903104530 76 35 0.0 2.0 0.00 0.00 0.00 91 991.8
20260903103029 76 31 0.0 3.0 0.00 0.00 0.00 91 991.7
20260903101526 76 43 0.0 3.0 0.00 0.00 0.00 91 991.6
20260903100024 76 87 0.0 6.0 0.00 0.00 0.00 90 991.7
20260903094535 76 31 0.0 9.0 0.00 0.00 0.00 90 991.9
20260903093017 76 359 0.0 3.0 0.00 0.00 0.00 89 991.8
20260903091515 77 359 0.0 6.0 0.00 0.00 0.00 87 991.8
20260903090014 77 359 0.0 2.0 0.00 0.00 0.00 85 991.8
20260903084515 77 359 0.0 4.0 0.00 0.00 0.00 84 991.5
20260903083014 77 359 0.0 3.0 0.00 0.00 0.00 83 991.2
20260903081513 77 359 0.0 1.0 0.00 0.00 0.00 85 991.5
20260903080012 78 118 0.0 1.0 0.00 0.00 0.00 85 991.5
20260903074512 77 122 0.0 1.0 0.00 0.00 0.00 87 991.4
20260903073017 77 147 0.0 1.0 0.00 0.00 0.00 86 991.3
20260903071510 77 359 0.0 1.0 0.00 0.00 0.00 84 991.4
20260903070012 77 48 0.0 0.0 0.00 0.00 0.00 85 991.4
20260903064509 77 359 0.0 0.0 0.00 0.00 0.00 84 991.4
20260903063010 77 66 0.0 0.0 0.00 0.00 0.00 84 991.5
20260903061508 77 359 0.0 1.0 0.00 0.00 0.00 84 991.4
20260903060005 78 359 0.0 1.0 0.00 0.00 0.00 83 991.5
20260903054503 78 359 0.0 5.0 0.00 0.00 0.00 82 991.8
20260903053101 78 359 0.0 6.0 0.00 0.00 0.00 81 991.9
20260903051612 79 359 0.0 1.0 0.00 0.00 0.00 79 991.9
20260903050057 79 359 0.0 8.0 0.00 0.00 0.00 78 992.0
20260903044556 80 359 0.0 1.0 0.00 0.00 0.00 76 992.2
20260903043146 80 359 0.0 8.0 0.00 0.00 0.00 75 992.0
20260903041553 81 359 0.0 10.0 0.00 0.00 0.00 74 992.1
20260903040053 82 359 0.0 8.0 0.00 0.00 0.00 72 992.1
20260903034553 82 359 1.0 10.0 0.00 0.00 0.00 71 992.2
20260903033053 82 359 0.0 8.0 0.00 0.00 0.00 70 992.1
20260903031556 83 359 0.0 2.0 0.00 0.00 0.00 69 992.2
20260903030052 84 359 0.0 5.0 0.00 0.00 0.00 68 992.1
20260903024551 84 359 0.0 2.0 0.00 0.00 0.00 66 992.0
20260903023050 85 359 0.0 8.0 0.00 0.00 0.00 65 991.9
20260903021549 86 359 0.0 2.0 0.00 0.00 0.00 64 991.8
20260903020049 87 61 0.0 10.0 0.00 0.00 0.00 62 991.6
20260903014552 88 24 0.0 9.0 0.00 0.00 0.00 61 991.4
20260903013057 88 54 0.0 3.0 0.00 0.00 0.00 60 991.1
20260903011547 89 359 0.0 3.0 0.00 0.00 0.00 57 990.8
20260903010049 91 359 0.0 10.0 0.00 0.00 0.00 55 990.7
20260903004547 91 27 0.0 5.0 0.00 0.00 0.00 53 990.6
20260903003049 92 31 0.0 6.0 0.00 0.00 0.00 52 990.5
20260903001545 92 359 1.0 8.0 0.00 0.00 0.00 51 990.3
20260903000046 93 51 0.0 3.0 0.00 0.00 0.00 50 990.3
20260902234600 93 359 0.0 1.0 0.00 0.00 0.00 50 990.2
20260902233044 94 359 0.0 13.0 0.00 0.00 0.00 48 990.1
20260902231645 94 359 0.0 10.0 0.00 0.00 0.00 49 990.2
20260902230043 95 9 0.0 2.0 0.00 0.00 0.00 48 990.2
20260902224605 97 307 0.0 4.0 0.00 0.00 0.00 46 990.1
20260902223042 96 359 0.0 9.0 0.00 0.00 0.00 46 989.9
20260902221542 98 359 0.0 10.0 0.00 0.00 0.00 45 990.0
20260902220046 99 359 0.0 2.0 0.00 0.00 0.00 42 990.0
20260902214540 98 289 0.0 10.0 0.00 0.00 0.00 44 990.1
20260902213038 100 359 0.0 5.0 0.00 0.00 0.00 41 990.3
20260902211538 100 359 0.0 1.0 0.00 0.00 0.00 44 990.5
20260902210034 100 293 0.0 9.0 0.00 0.00 0.00 43 990.5
20260902204538 99 305 0.0 3.0 0.00 0.00 0.00 43 990.9
20260902203029 99 283 0.0 2.0 0.00 0.00 0.00 43 991.0
20260902201525 98 293 0.0 10.0 0.00 0.00 0.00 45 991.3
20260902200040 98 268 0.0 6.0 0.00 0.00 0.00 44 991.4
20260902194523 97 359 0.0 10.0 0.00 0.00 0.00 45 991.8
20260902193018 98 312 0.0 4.0 0.00 0.00 0.00 45 992.0
20260902191515 97 359 1.0 12.0 0.00 0.00 0.00 46 992.3
20260902190019 95 260 0.0 1.0 0.00 0.00 0.00 48 992.3
20260902184512 96 307 0.0 2.0 0.00 0.00 0.00 49 992.7
20260902183005 96 14 0.0 1.0 0.00 0.00 0.00 49 992.9
20260902181501 95 250 0.0 1.0 0.00 0.00 0.00 51 993.2
20260902180113 95 4 6.0 10.0 0.00 0.00 0.00 52 993.5
20260902174557 95 295 0.0 1.0 0.00 0.00 0.00 51 993.8
20260902173053 94 21 0.0 1.0 0.00 0.00 0.00 54 993.9
20260902171553 94 359 0.0 1.0 0.00 0.00 0.00 55 994.2
20260902170051 94 359 0.0 1.0 0.00 0.00 0.00 56 994.5
20260902164546 93 359 0.0 1.0 0.00 0.00 0.00 55 994.7
20260902163044 92 289 0.0 2.0 0.00 0.00 0.00 58 995.0